Total_Precipitation_Accumulation
0.02 0.01 0.01 0.01 0.02 0.06 0.11 0.15 0.18 0.20 0.20 0.19 0.17 0.15 0.12 0.12 0.15 0.18 0.21 0.27 0.33 0.42 0.51 0.51 0.50 0.61 0.69 0.65 0.63 0.63 0.68 0.74 0.73 0.69 0.83 0.86 0.75 0.57 0.49 0.51 0.52 0.53 0.42
0.00 0.00 0.00 0.00 0.00 0.01 0.03 0.08 0.14 0.20 0.21 0.21 0.20 0.17 0.12 0.10 0.12 0.14 0.16 0.20 0.29 0.39 0.54 0.71 0.71 0.66 0.65 0.64 0.63 0.64 0.70 0.81 0.82 0.73 0.78 0.86 0.82 0.71 0.60 0.51 0.45 0.46 0.49
0.00 0.00 0.00 0.00 0.01 0.01 0.01 0.01 0.04 0.10 0.16 0.19 0.19 0.18 0.16 0.14 0.13 0.11 0.12 0.15 0.19 0.25 0.38 0.61 0.79 0.93 0.85 0.67 0.58 0.56 0.63 0.78 0.87 0.83 0.83 0.95 0.98 0.88 0.71 0.56 0.45 0.43 0.41
0.00 0.00 0.00 0.01 0.02 0.03 0.03 0.03 0.03 0.04 0.09 0.14 0.18 0.20 0.18 0.16 0.14 0.13 0.14 0.15 0.16 0.19 0.26 0.36 0.49 0.69 0.86 0.91 0.77 0.64 0.64 0.71 0.79 0.84 0.96 1.18 1.21 1.08 0.83 0.66 0.58 0.48 0.43
0.01 0.01 0.01 0.01 0.02 0.03 0.04 0.05 0.06 0.07 0.08 0.13 0.19 0.21 0.20 0.18 0.13 0.14 0.17 0.15 0.17 0.17 0.20 0.25 0.28 0.36 0.48 0.64 0.76 0.81 0.78 0.72 0.78 0.86 1.09 1.51 1.54 1.28 0.92 0.73 0.67 0.64 0.54
0.01 0.02 0.02 0.03 0.04 0.05 0.05 0.06 0.07 0.09 0.12 0.15 0.19 0.24 0.24 0.17 0.12 0.11 0.13 0.17 0.21 0.25 0.26 0.26 0.23 0.22 0.25 0.35 0.47 0.60 0.75 0.79 0.79 0.86 1.06 1.38 1.54 1.43 1.17 0.97 0.76 0.63 0.57
0.01 0.02 0.02 0.04 0.06 0.07 0.07 0.09 0.11 0.14 0.17 0.18 0.20 0.27 0.31 0.31 0.21 0.13 0.10 0.15 0.21 0.26 0.32 0.35 0.24 0.15 0.19 0.24 0.31 0.38 0.46 0.57 0.70 0.79 0.94 1.16 1.45 1.58 1.40 1.05 0.88 0.78 0.64
0.02 0.02 0.04 0.06 0.08 0.09 0.12 0.15 0.18 0.21 0.21 0.22 0.22 0.27 0.37 0.37 0.30 0.21 0.14 0.16 0.23 0.27 0.32 0.35 0.33 0.27 0.25 0.27 0.30 0.30 0.32 0.36 0.43 0.55 0.70 0.94 1.23 1.54 1.66 1.42 1.21 1.07 0.89
0.03 0.05 0.07 0.09 0.13 0.16 0.18 0.22 0.25 0.27 0.25 0.24 0.23 0.27 0.36 0.42 0.35 0.25 0.21 0.23 0.26 0.29 0.32 0.36 0.39 0.36 0.27 0.20 0.25 0.26 0.27 0.29 0.32 0.37 0.50 0.69 0.95 1.25 1.57 1.68 1.40 1.07 0.94
0.07 0.08 0.10 0.14 0.19 0.23 0.27 0.31 0.33 0.34 0.30 0.26 0.22 0.26 0.32 0.44 0.42 0.28 0.24 0.26 0.30 0.34 0.45 0.49 0.44 0.39 0.32 0.20 0.22 0.26 0.25 0.25 0.29 0.30 0.34 0.45 0.62 0.87 1.19 1.37 1.38 1.08 0.86
0.11 0.11 0.13 0.17 0.22 0.24 0.28 0.31 0.34 0.34 0.33 0.32 0.29 0.28 0.31 0.37 0.42 0.31 0.26 0.30 0.36 0.44 0.53 0.63 0.60 0.46 0.33 0.24 0.22 0.24 0.22 0.26 0.30 0.32 0.33 0.39 0.54 0.74 0.92 1.15 1.27 1.17 0.91
0.12 0.13 0.15 0.16 0.17 0.17 0.25 0.28 0.33 0.36 0.36 0.33 0.33 0.32 0.34 0.31 0.30 0.32 0.23 0.22 0.31 0.45 0.58 0.75 0.79 0.64 0.47 0.34 0.27 0.24 0.21 0.22 0.28 0.32 0.33 0.35 0.42 0.55 0.74 0.98 1.19 1.20 1.06
0.13 0.14 0.15 0.15 0.17 0.22 0.29 0.31 0.33 0.36 0.35 0.30 0.28 0.32 0.36 0.36 0.30 0.24 0.19 0.14 0.19 0.38 0.55 0.79 0.89 0.76 0.63 0.49 0.39 0.34 0.28 0.24 0.27 0.28 0.26 0.27 0.32 0.43 0.61 0.90 1.21 1.31 1.23
0.18 0.18 0.18 0.19 0.21 0.26 0.35 0.38 0.40 0.39 0.34 0.28 0.26 0.31 0.34 0.36 0.34 0.34 0.32 0.23 0.22 0.35 0.43 0.57 0.72 0.78 0.72 0.66 0.56 0.44 0.36 0.32 0.29 0.30 0.29 0.32 0.40 0.49 0.60 0.73 1.00 1.20 1.20
0.27 0.25 0.24 0.25 0.27 0.29 0.33 0.37 0.33 0.34 0.26 0.23 0.24 0.32 0.35 0.36 0.31 0.25 0.32 0.35 0.35 0.39 0.41 0.54 0.71 0.83 0.85 0.82 0.79 0.68 0.55 0.48 0.41 0.39 0.43 0.43 0.46 0.51 0.54 0.61 0.78 0.95 0.93
0.35 0.29 0.26 0.26 0.29 0.31 0.31 0.32 0.26 0.17 0.13 0.12 0.13 0.17 0.21 0.19 0.13 0.09 0.14 0.19 0.21 0.23 0.29 0.47 0.64 0.81 0.93 0.96 0.97 0.90 0.78 0.67 0.58 0.54 0.54 0.51 0.49 0.52 0.53 0.54 0.65 0.78 0.80
0.35 0.31 0.27 0.25 0.28 0.28 0.28 0.31 0.35 0.28 0.14 0.09 0.09 0.10 0.11 0.07 0.05 0.06 0.10 0.14 0.15 0.14 0.19 0.37 0.51 0.65 0.82 0.95 0.97 0.92 0.83 0.78 0.74 0.71 0.69 0.65 0.57 0.55 0.57 0.55 0.55 0.67 0.75
0.32 0.30 0.28 0.28 0.29 0.27 0.25 0.27 0.32 0.39 0.37 0.27 0.17 0.11 0.11 0.08 0.10 0.12 0.12 0.14 0.14 0.13 0.16 0.29 0.42 0.55 0.69 0.84 0.89 0.88 0.88 0.88 0.86 0.80 0.80 0.78 0.71 0.62 0.61 0.59 0.55 0.54 0.63
0.29 0.25 0.21 0.21 0.23 0.25 0.26 0.27 0.30 0.34 0.39 0.44 0.36 0.19 0.16 0.14 0.21 0.27 0.19 0.20 0.22 0.21 0.21 0.26 0.32 0.43 0.58 0.74 0.86 0.89 0.91 0.88 0.84 0.84 0.84 0.83 0.81 0.72 0.63 0.62 0.64 0.60 0.58
0.22 0.21 0.15 0.12 0.15 0.22 0.27 0.30 0.29 0.32 0.38 0.47 0.44 0.27 0.21 0.23 0.38 0.46 0.32 0.32 0.33 0.30 0.29 0.32 0.32 0.37 0.52 0.67 0.80 0.89 0.94 0.89 0.83 0.83 0.84 0.83 0.80 0.76 0.66 0.64 0.69 0.64 0.53
0.17 0.15 0.13 0.09 0.14 0.22 0.27 0.28 0.28 0.34 0.41 0.49 0.43 0.24 0.17 0.25 0.45 0.52 0.45 0.43 0.41 0.38 0.38 0.34 0.29 0.31 0.44 0.58 0.67 0.78 0.88 0.87 0.79 0.76 0.81 0.85 0.77 0.72 0.67 0.66 0.68 0.70 0.63
0.16 0.15 0.14 0.13 0.20 0.25 0.24 0.30 0.38 0.43 0.45 0.47 0.39 0.23 0.18 0.28 0.45 0.50 0.44 0.43 0.43 0.39 0.34 0.29 0.26 0.29 0.39 0.50 0.56 0.65 0.78 0.79 0.74 0.69 0.74 0.82 0.78 0.70 0.66 0.64 0.64 0.70 0.71
0.21 0.21 0.18 0.20 0.26 0.25 0.26 0.33 0.42 0.45 0.43 0.40 0.36 0.33 0.32 0.39 0.41 0.42 0.41 0.39 0.37 0.36 0.34 0.34 0.33 0.34 0.41 0.51 0.52 0.57 0.68 0.68 0.66 0.64 0.69 0.76 0.75 0.70 0.67 0.61 0.57 0.60 0.64
0.17 0.20 0.19 0.18 0.20 0.23 0.27 0.29 0.33 0.35 0.34 0.33 0.34 0.33 0.34 0.36 0.36 0.36 0.36 0.37 0.39 0.40 0.39 0.41 0.39 0.38 0.43 0.49 0.51 0.53 0.61 0.61 0.58 0.59 0.63 0.68 0.69 0.67 0.65 0.61 0.56 0.55 0.58
0.18 0.20 0.21 0.21 0.20 0.20 0.24 0.28 0.31 0.32 0.34 0.33 0.29 0.28 0.31 0.31 0.33 0.34 0.35 0.35 0.35 0.37 0.39 0.40 0.40 0.42 0.42 0.40 0.43 0.48 0.52 0.49 0.47 0.50 0.60 0.68 0.67 0.64 0.62 0.58 0.57 0.58 0.60
0.18 0.23 0.27 0.30 0.28 0.26 0.27 0.32 0.34 0.32 0.32 0.29 0.29 0.29 0.33 0.35 0.35 0.35 0.36 0.36 0.34 0.35 0.35 0.40 0.42 0.39 0.39 0.39 0.37 0.40 0.39 0.38 0.40 0.42 0.49 0.59 0.65 0.62 0.61 0.60 0.57 0.61 0.62